OPS 4682 DEB, 26731

Orbit data source: Space-Track

OPS 4682 DEB, 26731 is space debris in LEO originally from a launch on Sat, 03 Apr 1965 UTC launched from the Air Force Western Test Range (AFWTR). Debris objects in space refer to the collection of defunct objects orbiting the Earth. Examples of debris include non-operational satellites, rocket bodies, and fragments generated from explosions, collisions, or faulty payload assembly.

Loading next visibility...
Identifier
26731, 1965-027BE
Orbit
LEO
Country
Flag of USUS
Related business
Manufacturer
Unknown
Mission
Spacecraft
Bus & Motor
Unknown
Mass
Unknown
Launch date (UTC)
1965-04-03 (61 years ago)
Launch vehicle
Unknown
Launch site
Air Force Western Test Range (AFWTR)
Object type
Payload
Rocket body
Debris
Shape & HBR
Unknown shape, 0.1 m
Radar Cross Section
Small (<0.1 m²)

Expand to show TLE details & history
Last TLE update: 2 days ago

TLE from 2 days ago
0 OPS 4682 DEB
1 26731U 65027BE  26103.03935216  .00000246  00000-0  84503-3 0  9995
2 26731  90.2616  12.9045 0024527  34.2501 342.9878 12.95306614553417
Epoch: 2026-04-13T00:56Z
TLE epoch observation values (Epoch: 2026-04-13T00:56:40.026Z)
Latitude
17.1413°
Longitude
157.42177°
Altitude
1,264.851 km
Speed
7.233 km/s
True Right ascension
00h 51m 17s
True Declination
17° 03' 04"
Sunlit
Object was in daylight at epoch
Visualization orbit readout
Latitude
Unknown
Longitude
Unknown
Altitude
Unknown
Speed
Unknown
Apparent Right ascension
Unknown
Apparent Declination
Unknown
Sunlit
N/A
Visualization observer readout
Local Sidereal Time
04:21:41
Azimuth
Unknown
Elevation
Unknown
Doppler factor
Unknown
Orbital elements
Apogee altitude
1,296.442 km
Perigee altitude
1,258.888 km
Semi-major axis
7,655.802 km
Eccentricity
0.00245
Inclination
90.2616°
RAAN
12.9045°
Arg. of periapsis
34.2501°
True anomaly
342.90533°
Mean anomaly
342.9878°
Eccentric anomaly
342.94659°
Mean motion
3.24009 °/min
Orbital period
111.11 mins
BSTAR
0.00084503
Loading maneuver chart data...
Computing Atmospheric mass density...
Loading historical data...
Loading historical data...
Loading historical data...
Loading historical data...
Loading historical data...
Loading historical data...
Loading historical data...

Documentation

Showing up to 5 results
|